Regional Weather Roundup
Issued by NWS

Home | Current Version | Previous Version | Graphics & Text | Print | Product List | Glossary On
Versions: 1 2 3 4 5 6 7 8 9 10 11 12 13 14 15 16 17 18 19 20 21 22 23 24 25 26 27 28 29 30 31 32 33 34 35 36 37 38 39 40 41 42 43 44 45 46 47 48 49 50
000
ASUS43 KFSD 300502
RWRSD

WEATHER ROUNDUP FOR SOUTH DAKOTA
NATIONAL WEATHER SERVICE SIOUX FALLS SD
1200 AM CDT TUE JUN 30 2015

NOTE: "FAIR" INDICATES FEW OR NO CLOUDS BELOW 12,000 FEET WITH NO
SIGNIFICANT WEATHER AND/OR OBSTRUCTIONS TO VISIBILITY.


SDZ001>005-009-010-012>017-300600-
NORTHWEST AND NORTH CENTRAL SOUTH DAKOTA

CITY           SKY/WX    TMP DP  RH WIND       PRES   REMARKS
BUFFALO          N/A     75  58  55 NW5       29.91F
FAITH            N/A     72  63  73 SW12      29.95S
MOBRIDGE       MOCLDY    75  62  64 SE8       29.89S
$$

SDZ012>016-024>037-041>051-057-063-072>074-300600-
SOUTHWEST AND SOUTH CENTRAL SOUTH DAKOTA

CITY           SKY/WX    TMP DP  RH WIND       PRES   REMARKS
RAPID CTY ARPT CLEAR     66  61  84 NW3       30.03S
PIERRE         LGT RAIN  73  60  63 CALM      29.91S
CUSTER         PTCLDY    60  55  83 W3        30.22S
ELLSWORTH AFB  CLEAR     72  60  64 SW8       30.03R
PHILIP         PTCLDY    77  63  61 S7        29.95F
PINE RIDGE     CLEAR     63  59  87 CALM      30.07R
WINNER         FAIR      74  55  51 S7        29.96S
$$

SDZ004>011-016>023-039-040-300600-
NORTHEAST SOUTH DAKOTA

CITY           SKY/WX    TMP DP  RH WIND       PRES   REMARKS
ABERDEEN       PTCLDY    67  62  84 E5        29.92S
WATERTOWN      CLOUDY    65  61  87 N3        29.94R
BROOKINGS      CLEAR     66  59  77 CALM      29.95S
SISSETON         N/A     65  61  87 N8        29.92R
$$

SDZ017-020-022-023-036>040-048>070-300600-
SOUTHEAST SOUTH DAKOTA

CITY           SKY/WX    TMP DP  RH WIND       PRES   REMARKS
SIOUX FALLS    CLEAR     68  63  84 NW7       29.92R
HURON          MOCLDY    72  65  78 E5        29.91S
CHAMBERLAIN    CLEAR     70  61  72 CALM      29.94S
MITCHELL       MOCLDY    73  65  75 SW5       29.92R
YANKTON        CLEAR     72  61  68 W7        29.91S
$$

ABBREVIATIONS USED IN REMARKS
   TC - TEMPERATURE IN CELSIUS
  WCI - WIND CHILL INDEX
   HX - HEAT INDEX
  VSB - VISIBILITY



USA.gov is the U.S. government's official web portal to all federal, state and local government web resources and services.